TimeEST,TemperatureF,Dew PointF,Humidity,Sea Level PressureIn,VisibilityMPH,Wind Direction,Wind SpeedMPH,Gust SpeedMPH,PrecipitationIn,Events,Conditions,WindDirDegrees,DateUTC
12:53 AM,54.0,46.0,75,29.88,10.0,Calm,Calm,-,N/A,,Clear,0,2013-02-27 05:53:00
1:53 AM,53.1,46.0,77,29.91,10.0,Calm,Calm,-,N/A,,Clear,0,2013-02-27 06:53:00
2:53 AM,52.0,46.0,80,29.91,10.0,Calm,Calm,-,N/A,,Clear,0,2013-02-27 07:53:00
3:53 AM,52.0,46.0,80,29.91,10.0,Variable,3.5,-,N/A,,Clear,0,2013-02-27 08:53:00
4:53 AM,51.1,46.0,83,29.93,10.0,Calm,Calm,-,N/A,,Clear,0,2013-02-27 09:53:00
5:53 AM,51.1,45.0,80,29.95,10.0,Variable,5.8,-,N/A,,Clear,0,2013-02-27 10:53:00
6:53 AM,50.0,41.0,71,29.96,10.0,Calm,Calm,-,N/A,,Clear,0,2013-02-27 11:53:00
7:53 AM,54.0,37.9,55,29.98,10.0,Variable,5.8,-,N/A,,Mostly Cloudy,0,2013-02-27 12:53:00
8:53 AM,53.1,37.0,55,30.01,10.0,NW,6.9,-,N/A,,Mostly Cloudy,310,2013-02-27 13:53:00
10:53 AM,57.0,36.0,45,30.02,10.0,Variable,3.5,-,N/A,,Mostly Cloudy,0,2013-02-27 15:53:00
11:53 AM,57.9,37.0,46,30.02,10.0,Variable,3.5,-,N/A,,Mostly Cloudy,0,2013-02-27 16:53:00
12:53 PM,60.1,37.0,42,30.00,10.0,Variable,4.6,-,N/A,,Mostly Cloudy,0,2013-02-27 17:53:00
1:53 PM,61.0,37.9,42,29.98,10.0,Variable,4.6,-,N/A,,Mostly Cloudy,0,2013-02-27 18:53:00
2:53 PM,62.1,37.9,41,29.96,10.0,Variable,5.8,-,N/A,,Mostly Cloudy,0,2013-02-27 19:53:00
3:53 PM,62.1,39.0,43,29.95,10.0,Variable,4.6,-,N/A,,Mostly Cloudy,0,2013-02-27 20:53:00
4:53 PM,61.0,39.9,46,29.95,10.0,WSW,4.6,-,N/A,,Mostly Cloudy,250,2013-02-27 21:53:00
5:53 PM,57.9,44.1,60,29.95,10.0,Calm,Calm,-,N/A,,Mostly Cloudy,0,2013-02-27 22:53:00
6:53 PM,55.0,46.0,72,29.96,10.0,Calm,Calm,-,N/A,,Mostly Cloudy,0,2013-02-27 23:53:00
7:53 PM,53.1,45.0,74,29.97,10.0,Calm,Calm,-,N/A,,Mostly Cloudy,0,2013-02-28 00:53:00
8:53 PM,52.0,45.0,77,29.98,10.0,Calm,Calm,-,N/A,,Clear,0,2013-02-28 01:53:00
9:53 PM,48.9,44.1,83,29.99,10.0,Calm,Calm,-,N/A,,Clear,0,2013-02-28 02:53:00
10:53 PM,48.9,44.1,83,29.98,10.0,Calm,Calm,-,N/A,,Clear,0,2013-02-28 03:53:00
11:53 PM,50.0,45.0,83,29.97,10.0,Calm,Calm,-,N/A,,Clear,0,2013-02-28 04:53:00